Showing default

HJS-9B, 68832

Orbit data source: Space-Track

HJS-9B, 68832 is a payload satellite owned by Zhongguo Xingwang (CN) in LEO that was launched on Fri, 24 Apr 2026 UTC via a CHANG ZHENG 2D launch vehicle from the Xichang Space Center, China (XSC). Payload-class satellites include a variety of spacecraft equipped with specific instruments for various scientific and technological missions. These include communications satellites like Starlink; space stations such as the ISS; scientific satellites like the Hubble; Earth observation satellites from companies like Planet Labs, Umbra, and HawkEye 360; GPS; miniature CubeSats for education and research; and military/defense satellites.

Loading next visibility...
Identifier
68832, 2026-091B
Orbit
LEO
Country
Flag of CNCN / PRC
Related business
Manufacturer
Unknown (CN)
Mission
Operational spacecraft
Bus & Motor
Unknown
Mass
~300 kg wet, ~300 kg dry
Launch date (UTC)
2026-04-24 (2 months ago)
Launch vehicle
CHANG ZHENG 2D
Launch site
Xichang Space Center, China (XSC)
Object type
Payload
Rocket body
Debris
Shape & HBR
Unknown shape, 14.5 m
Radar Cross Section
Large (>1 m²)

Expand to show TLE details & history
Last TLE update: 7 hours ago

TLE from 7 hours ago
0 HJS-9B
1 68832U 26091B   26171.55669863  .00003627  00000-0  18475-3 0  9996
2 68832  55.0041   6.9768 0014231  56.7383 303.4998 15.19228015  8719
Epoch: 2026-06-20T13:21Z
TLE epoch observation values (Epoch: 2026-06-20T13:21:38.761Z)
Latitude
-0.00003°
Longitude
-102.20434°
Altitude
503.864 km
Speed
7.616 km/s
True Right ascension
00h 27m 54s
True Declination
0° 00' 00"
Sunlit
Object was in daylight at epoch
Visualization orbit readout
Latitude
Unknown
Longitude
Unknown
Altitude
Unknown
Speed
Unknown
Apparent Right ascension
Unknown
Apparent Declination
Unknown
Sunlit
N/A
Visualization observer readout
Local Sidereal Time
07:20:43
Azimuth
Unknown
Elevation
Unknown
Doppler factor
Unknown
Orbital elements
Apogee altitude
517.934 km
Perigee altitude
498.335 km
Semi-major axis
6,886.271 km
Eccentricity
0.00142
Inclination
55.0041°
RAAN
6.9768°
Arg. of periapsis
56.7383°
True anomaly
303.36368°
Mean anomaly
303.4998°
Eccentric anomaly
303.43175°
Mean motion
3.79811 °/min
Orbital period
94.78 mins
BSTAR
0.00018475
Loading maneuver chart data...
Computing Atmospheric mass density...
Loading historical data...
Loading historical data...
Loading historical data...
Loading historical data...
Loading historical data...
Loading historical data...
Loading historical data...
Other satellites on launch #91 in the year 2026 (2026-04-24 UTC)

Documentation

Showing up to 5 results
|